Regional Weather Roundup
Issued by NWS Green Bay, WI

Home | Current Version | Previous Version | Text Only | Print | Product List | Glossary On
Versions: 1 2 3 4 5 6 7 8 9 10 11 12 13 14 15 16 17 18 19 20 21 22 23 24 25 26 27 28 29 30 31 32 33 34 35 36 37 38 39 40 41 42 43 44 45 46 47 48
978
ASUS43 KGRB 220111
RWRGRB

NORTH-CENTRAL AND NORTHEAST WISCONSIN REGIONAL WEATHER ROUNDUP
NATIONAL WEATHER SERVICE GREEN BAY WI
800 PM CDT THU MAY 21 2015

WIZ005-009-010>012-018-019-220200-
NORTH CENTRAL WISCONSIN

CITY           SKY/WX    TMP DP  RH WIND       PRES   REMARKS
IRONWOOD       CLEAR     57  28  33 NW5       29.99R
MANITOWISH WTR CLEAR     57  28  33 NW8       30.02R
ARBOR VITAE    CLEAR     57  29  35 N5        30.02R
EAGLE RIVER    CLEAR     56  23  28 N5        30.01R
LAND O LAKES   CLEAR     56  25  29 NW6       30.02R
RHINELANDER    CLEAR     58  26  29 N5        30.02R
PHILLIPS       CLEAR     58  34  39 N5        30.00R
ANTIGO         CLEAR     58  28  31 N10       30.00R
TOMAHAWK       CLEAR     58  27  30 N3        30.02R
MERRILL        CLEAR     60  27  28 N9        30.01R
$$

WIZ013-073-220200-
NORTHEAST WISCONSIN

CITY           SKY/WX    TMP DP  RH WIND       PRES   REMARKS
IRON MOUNTAIN  CLEAR     59  25  27 N10       29.98R
MARINETTE      CLEAR     54  28  37 E10       29.99R
OCONTO         PTCLDY    54  34  47 E9G18     29.99R
$$

WIZ017-030-035>037-045-220200-
CENTRAL WISCONSIN

CITY           SKY/WX    TMP DP  RH WIND       PRES   REMARKS
MEDFORD        CLEAR     58  32  36 N7        30.00R
WAUSAU         CLEAR     62  27  26 N8        29.98R
MOSINEE        CLEAR     63  27  25 N12       29.99R
MARSHFIELD     CLEAR     64  30  27 N9        29.99R
WISC RAPIDS    CLEAR     67  32  27 N15G22    29.98R
STEVENS POINT  CLEAR     63  30  28 N13       29.98R
WAUPACA        PTCLDY    70  33  26 N7        29.95R
SHAWANO        PTCLDY    57  41  55 E8        29.99R
CLINTONVILLE   PTCLDY    57  43  58 E9        29.98R
$$

WIZ038-039-048-051-220200-
FOX VALLEY

CITY           SKY/WX    TMP DP  RH WIND       PRES   REMARKS
NWS GREEN BAY  MOCLDY    56  41  57 E10       29.98R
APPLETON       MOCLDY    59  37  44 E14       29.95R
OSHKOSH        MOCLDY    65  41  41 N7        29.93R
FOND DU LAC    MOCLDY    64  39  39 SW8       29.93S
$$

WIZ022-050-052-220200-
EAST CENTRAL WISCONSIN

CITY           SKY/WX    TMP DP  RH WIND       PRES   REMARKS
STURGEON BAY   PTCLDY    52  28  40 E9        30.01S
MANITOWOC      CLOUDY    52  34  50 NE8       30.00R
SHEBOYGAN      LGT RAIN  51  40  65 NE18      29.96R
$$

LMZ563-521-522-541>543-220200-
LAKESHORE

STATION/POSITION TIME  TEMP    WIND        PRES    VSBY  WAVE
                       AIR SEA DIR/SP/G                  HT/PER
                 (UTC) (F)     (DEG/KT/KT) (MB)    (MI)  (FT/S)
SHEBOYGAN LKSHOR 0100          360/ 24/ 32 1016.0R
KEWAUNEE LKSHORE 0000           30/ 11/ 13 1014.5R
NORTHPORT PIER   0000   55      30/ 11/ 13 1015.2R
N MID LAKE BUOY  0050   42 36   60/  4/  4 1016.4R         1/ 3
SISTER BAY LKSHO 0002   57      30/  9/ 14   N/A
CHAMBERS ISLAND  0000   54      50/ 12/ 17 1015.2R
MENOMINEE LKSHOR 0000   53      60/ 12/ 14 1015.7R
$$



USA.gov is the U.S. government's official web portal to all federal, state and local government web resources and services.